Temp
-5 -5 -5 -5 -5 -5 -5 -5 -4 -4 -5 -5 -5 -5 -5 -5 -4 -4 -3 -3 -3 -3 -4 -4 -4 -5 -5 -6 -6 -6 -6 -7 -7 -7 -6 -6 -6 -6 -6 -6 -6 -6 -6 -6 -6 -6 -6 -6 -5 -5 -5 -5 -5 -5 -5 -5 -5 -5 -5 -5 -5 -5 -5
-5 -5 -5 -5 -5 -5 -5 -5 -5 -5 -5 -5 -5 -5 -5 -5 -4 -3 -3 -3 -3 -3 -3 -4 -4 -4 -5 -5 -6 -6 -6 -6 -6 -6 -6 -6 -6 -6 -6 -6 -6 -6 -6 -6 -6 -6 -6 -6 -6 -6 -6 -5 -5 -5 -5 -5 -5 -5 -5 -5 -5 -5 -5
-5 -5 -5 -5 -5 -5 -5 -5 -5 -5 -5 -5 -5 -5 -4 -4 -4 -3 -3 -3 -3 -3 -3 -3 -4 -4 -5 -5 -5 -6 -6 -6 -6 -6 -6 -6 -6 -6 -6 -6 -6 -6 -6 -6 -5 -5 -5 -6 -6 -6 -6 -6 -5 -5 -5 -5 -5 -5 -5 -5 -5 -5 -5
-5 -5 -5 -4 -4 -4 -4 -4 -4 -4 -4 -4 -5 -4 -4 -4 -4 -3 -2 -3 -3 -3 -3 -4 -4 -4 -4 -5 -5 -5 -6 -6 -6 -6 -6 -6 -6 -6 -6 -6 -6 -7 -7 -6 -6 -6 -6 -6 -6 -6 -6 -5 -5 -6 -6 -6 -5 -5 -5 -5 -5 -6 -6
-5 -4 -4 -4 -4 -4 -4 -4 -4 -4 -4 -3 -4 -4 -4 -4 -3 -3 -2 -2 -3 -3 -3 -4 -4 -4 -4 -5 -5 -5 -5 -5 -6 -6 -6 -6 -6 -6 -6 -6 -6 -7 -7 -7 -7 -7 -6 -6 -6 -6 -5 -5 -5 -6 -6 -6 -6 -5 -5 -6 -6 -6 -6
-5 -4 -5 -5 -5 -5 -5 -4 -4 -4 -4 -4 -4 -4 -3 -3 -3 -3 -2 -2 -2 -3 -3 -4 -4 -4 -4 -4 -5 -5 -5 -5 -5 -6 -6 -6 -6 -6 -6 -6 -6 -7 -7 -7 -7 -7 -7 -7 -6 -5 -5 -5 -5 -5 -6 -6 -6 -5 -5 -6 -6 -6 -6
-5 -5 -5 -5 -5 -5 -5 -5 -4 -5 -5 -5 -4 -4 -4 -4 -3 -3 -3 -2 -2 -3 -3 -4 -4 -4 -4 -4 -4 -4 -5 -5 -5 -5 -6 -6 -6 -6 -6 -6 -7 -7 -7 -7 -7 -7 -7 -7 -6 -6 -5 -5 -5 -5 -6 -6 -6 -6 -6 -6 -6 -6 -6
-5 -5 -5 -5 -5 -5 -5 -4 -4 -4 -4 -4 -4 -4 -4 -4 -4 -4 -3 -2 -2 -3 -4 -4 -4 -4 -4 -4 -4 -4 -4 -4 -5 -5 -5 -5 -6 -6 -6 -6 -7 -7 -7 -7 -7 -7 -7 -7 -6 -6 -5 -5 -5 -5 -6 -6 -6 -6 -6 -6 -6 -6 -6
-6 -6 -5 -5 -5 -5 -5 -4 -4 -4 -4 -4 -4 -4 -4 -4 -3 -3 -3 -2 -2 -3 -4 -4 -4 -4 -4 -4 -4 -4 -4 -4 -5 -4 -5 -5 -5 -6 -6 -6 -6 -7 -7 -7 -7 -7 -7 -7 -6 -6 -5 -5 -5 -5 -5 -6 -6 -6 -6 -6 -6 -6 -7
-5 -5 -5 -5 -5 -5 -4 -4 -4 -4 -4 -4 -4 -4 -3 -3 -3 -3 -2 -2 -2 -3 -4 -4 -4 -4 -4 -4 -4 -4 -4 -4 -4 -4 -5 -5 -5 -5 -6 -6 -6 -7 -7 -7 -7 -7 -7 -6 -6 -6 -5 -5 -5 -5 -5 -6 -6 -6 -6 -6 -6 -7 -7
-5 -5 -5 -5 -5 -5 -4 -4 -5 -4 -4 -4 -4 -4 -3 -3 -3 -3 -2 -2 -2 -3 -3 -4 -4 -4 -4 -4 -4 -4 -4 -4 -5 -5 -5 -5 -5 -5 -6 -6 -6 -6 -6 -6 -6 -7 -6 -6 -6 -6 -5 -5 -5 -5 -5 -6 -6 -6 -6 -6 -6 -6 -7
-6 -6 -6 -6 -6 -5 -5 -5 -5 -5 -5 -4 -4 -4 -3 -3 -3 -2 -2 -3 -2 -3 -3 -4 -4 -4 -4 -4 -4 -4 -4 -4 -5 -4 -4 -5 -5 -5 -5 -6 -6 -6 -6 -6 -6 -6 -6 -6 -5 -5 -5 -5 -5 -5 -5 -6 -6 -6 -6 -6 -6 -6 -7
-6 -6 -6 -6 -6 -6 -5 -5 -5 -5 -5 -4 -4 -4 -4 -3 -3 -3 -3 -3 -3 -3 -3 -4 -4 -4 -4 -5 -4 -4 -4 -4 -4 -4 -4 -4 -5 -5 -5 -5 -6 -6 -6 -6 -7 -7 -7 -6 -5 -5 -5 -5 -5 -5 -5 -6 -6 -6 -6 -6 -6 -6 -6
-6 -6 -6 -6 -6 -6 -6 -5 -5 -5 -5 -4 -4 -4 -4 -4 -3 -3 -3 -3 -3 -3 -3 -4 -4 -4 -5 -5 -4 -4 -4 -4 -4 -4 -4 -4 -4 -4 -4 -5 -5 -6 -6 -7 -7 -7 -7 -7 -6 -5 -5 -5 -5 -5 -5 -6 -6 -6 -6 -6 -6 -6 -6
-7 -7 -6 -6 -6 -6 -6 -6 -5 -5 -5 -5 -4 -4 -4 -4 -4 -3 -3 -3 -3 -3 -3 -4 -4 -4 -4 -5 -5 -4 -4 -4 -4 -4 -4 -4 -4 -4 -4 -5 -5 -6 -6 -7 -7 -7 -7 -7 -7 -6 -6 -5 -5 -6 -6 -6 -6 -6 -6 -6 -6 -6 -6
-7 -7 -7 -6 -6 -6 -6 -6 -6 -5 -5 -5 -4 -4 -4 -4 -4 -4 -4 -3 -3 -3 -4 -4 -4 -4 -4 -5 -5 -5 -4 -4 -4 -4 -4 -4 -4 -4 -4 -5 -5 -6 -6 -6 -7 -7 -7 -7 -7 -6 -6 -6 -6 -6 -6 -6 -6 -6 -6 -6 -6 -7 -7
-7 -7 -7 -7 -6 -6 -6 -6 -6 -5 -5 -5 -5 -5 -4 -4 -4 -4 -4 -4 -4 -4 -4 -4 -4 -4 -4 -4 -5 -5 -5 -5 -4 -4 -4 -4 -4 -4 -4 -4 -4 -5 -6 -6 -7 -7 -7 -7 -7 -7 -6 -6 -6 -6 -6 -6 -6 -6 -6 -7 -7 -7 -7
-8 -8 -7 -7 -7 -6 -6 -6 -6 -6 -5 -5 -5 -5 -5 -5 -4 -4 -4 -4 -4 -4 -4 -4 -4 -4 -4 -4 -4 -5 -5 -5 -5 -4 -4 -4 -4 -4 -4 -4 -4 -4 -5 -6 -7 -7 -7 -7 -7 -7 -7 -7 -7 -7 -7 -7 -6 -7 -7 -7 -7 -7 -7
-8 -8 -8 -7 -7 -6 -6 -5 -6 -6 -6 -5 -5 -5 -5 -5 -5 -5 -4 -4 -4 -4 -4 -4 -4 -4 -4 -4 -4 -4 -5 -5 -5 -5 -4 -4 -4 -4 -4 -4 -4 -4 -4 -5 -6 -7 -7 -7 -7 -7 -7 -7 -7 -7 -7 -7 -7 -7 -7 -7 -7 -7 -7
-9 -9 -9 -8 -6 -6 -6 -6 -6 -6 -6 -6 -6 -5 -6 -6 -5 -5 -4 -4 -4 -4 -4 -4 -4 -4 -5 -4 -4 -4 -4 -5 -5 -5 -4 -4 -4 -4 -4 -4 -4 -4 -4 -4 -5 -6 -7 -7 -7 -7 -7 -7 -7 -7 -7 -7 -7 -7 -7 -7 -7 -7 -7
-9 -9 -9 -7 -7 -6 -6 -6 -6 -6 -6 -6 -6 -6 -6 -6 -5 -5 -5 -5 -5 -5 -5 -5 -5 -5 -5 -4 -4 -4 -4 -4 -4 -5 -5 -5 -4 -4 -4 -4 -4 -4 -4 -4 -5 -5 -6 -7 -7 -7 -7 -7 -7 -7 -7 -7 -7 -7 -7 -7 -7 -7 -7
-10 -10 -9 -8 -7 -7 -6 -6 -6 -6 -6 -6 -6 -6 -6 -6 -5 -5 -5 -5 -5 -5 -5 -5 -5 -5 -5 -4 -4 -4 -4 -4 -4 -4 -5 -5 -5 -5 -4 -4 -4 -4 -4 -4 -4 -5 -5 -6 -7 -7 -7 -7 -7 -7 -7 -7 -7 -7 -7 -7 -7 -7 -7
-10 -10 -9 -8 -7 -7 -6 -7 -7 -6 -6 -6 -6 -6 -6 -6 -6 -6 -6 -6 -6 -6 -5 -5 -5 -5 -5 -5 -5 -5 -4 -4 -4 -4 -5 -5 -5 -5 -5 -4 -4 -5 -4 -4 -4 -5 -5 -6 -6 -6 -7 -7 -7 -6 -6 -6 -7 -7 -7 -7 -6 -7 -7
-10 -10 -9 -8 -7 -7 -7 -7 -7 -7 -7 -6 -6 -6 -6 -6 -6 -6 -6 -6 -6 -6 -6 -6 -5 -5 -5 -5 -5 -5 -5 -5 -4 -4 -5 -5 -5 -5 -5 -5 -5 -5 -5 -5 -5 -5 -5 -5 -6 -6 -6 -7 -7 -7 -7 -6 -6 -7 -7 -7 -7 -7 -7
-11 -11 -10 -8 -8 -7 -7 -8 -8 -8 -7 -7 -6 -6 -6 -6 -6 -6 -6 -7 -7 -6 -6 -6 -6 -5 -5 -6 -6 -6 -6 -5 -5 -5 -5 -5 -5 -5 -5 -5 -5 -5 -5 -5 -5 -5 -5 -5 -6 -6 -6 -7 -7 -7 -7 -7 -7 -7 -7 -7 -7 -7 -7
-12 -12 -11 -9 -8 -7 -8 -9 -8 -8 -8 -7 -6 -6 -6 -6 -6 -6 -6 -7 -7 -7 -7 -7 -6 -6 -6 -6 -6 -6 -6 -6 -6 -5 -5 -5 -5 -5 -5 -5 -5 -5 -5 -5 -5 -5 -5 -5 -5 -6 -6 -7 -7 -7 -7 -7 -7 -7 -7 -7 -7 -7 -7
-13 -12 -12 -11 -9 -8 -8 -10 -9 -9 -8 -7 -6 -6 -6 -6 -6 -6 -7 -7 -7 -8 -7 -7 -7 -7 -6 -6 -6 -6 -6 -6 -6 -6 -6 -6 -6 -6 -6 -6 -5 -5 -5 -6 -6 -6 -6 -6 -6 -6 -6 -7 -7 -7 -7 -7 -7 -7 -7 -7 -7 -7 -7
-14 -13 -12 -11 -9 -8 -9 -10 -10 -9 -8 -7 -7 -7 -7 -6 -6 -6 -7 -7 -8 -8 -8 -8 -8 -7 -7 -7 -6 -6 -6 -7 -6 -6 -6 -6 -6 -6 -6 -6 -6 -6 -6 -6 -6 -6 -6 -6 -6 -6 -6 -6 -7 -7 -7 -7 -7 -7 -7 -7 -7 -7 -7
-14 -13 -12 -11 -10 -10 -9 -10 -10 -9 -8 -8 -7 -7 -7 -7 -7 -7 -7 -7 -8 -8 -8 -8 -8 -8 -8 -7 -7 -7 -7 -6 -6 -6 -6 -6 -6 -6 -6 -6 -6 -6 -6 -6 -6 -6 -7 -7 -7 -6 -6 -6 -6 -7 -7 -7 -7 -7 -7 -7 -7 -8 -8
-14 -13 -12 -12 -12 -11 -10 -10 -11 -10 -9 -9 -8 -8 -8 -8 -8 -7 -7 -7 -8 -8 -8 -9 -9 -8 -8 -8 -7 -7 -7 -7 -7 -6 -6 -6 -6 -6 -6 -6 -6 -6 -6 -6 -6 -6 -7 -7 -7 -7 -6 -6 -6 -7 -7 -7 -7 -7 -7 -7 -8 -8 -8
-13 -13 -13 -13 -13 -12 -12 -12 -12 -11 -10 -9 -9 -9 -9 -9 -8 -8 -7 -7 -8 -8 -8 -9 -9 -9 -8 -8 -8 -7 -7 -7 -7 -7 -7 -6 -6 -6 -6 -6 -7 -7 -7 -6 -6 -6 -7 -7 -7 -7 -6 -6 -6 -7 -7 -7 -7 -7 -7 -8 -8 -8 -8
-13 -13 -13 -13 -13 -13 -13 -13 -12 -11 -10 -10 -10 -10 -9 -9 -9 -9 -8 -8 -8 -8 -8 -9 -9 -9 -9 -8 -8 -8 -8 -8 -8 -7 -7 -7 -7 -7 -7 -7 -7 -7 -7 -7 -7 -7 -7 -7 -7 -7 -7 -7 -7 -7 -7 -7 -7 -7 -7 -8 -8 -8 -8
-14 -13 -13 -14 -13 -13 -13 -13 -13 -12 -11 -11 -11 -11 -10 -10 -10 -10 -10 -9 -8 -8 -8 -9 -9 -9 -9 -9 -8 -8 -8 -8 -8 -8 -8 -7 -7 -7 -7 -7 -7 -7 -7 -7 -7 -7 -7 -7 -7 -7 -7 -7 -7 -7 -7 -7 -7 -7 -7 -8 -8 -8 -8
-14 -13 -14 -14 -14 -13 -13 -13 -13 -13 -13 -13 -13 -12 -11 -11 -10 -10 -11 -11 -10 -9 -9 -9 -9 -9 -9 -9 -9 -9 -9 -9 -9 -8 -8 -8 -8 -8 -7 -7 -7 -8 -8 -8 -7 -7 -7 -7 -7 -7 -7 -7 -7 -7 -7 -7 -7 -7 -7 -7 -8 -8 -8
-14 -14 -14 -14 -14 -13 -14 -13 -13 -13 -13 -13 -13 -13 -13 -12 -10 -10 -10 -11 -11 -10 -10 -9 -9 -9 -9 -9 -9 -9 -9 -9 -9 -9 -9 -9 -8 -8 -8 -8 -8 -8 -8 -8 -8 -8 -8 -8 -7 -7 -7 -7 -7 -7 -7 -7 -7 -7 -8 -8 -8 -8 -8
-15 -15 -15 -15 -14 -14 -14 -14 -13 -13 -13 -13 -13 -13 -13 -12 -11 -10 -10 -10 -10 -10 -10 -10 -9 -9 -9 -9 -9 -9 -9 -9 -9 -9 -9 -9 -9 -8 -8 -8 -8 -9 -9 -9 -8 -8 -8 -8 -8 -8 -7 -7 -7 -8 -8 -8 -8 -8 -8 -8 -8 -8 -8
-16 -16 -16 -15 -14 -14 -14 -14 -14 -13 -13 -13 -13 -13 -14 -13 -11 -10 -10 -10 -10 -10 -10 -10 -10 -10 -10 -9 -9 -9 -9 -9 -9 -9 -9 -9 -9 -9 -9 -9 -9 -9 -9 -9 -9 -9 -9 -9 -9 -8 -8 -8 -8 -8 -8 -8 -8 -8 -8 -8 -8 -8 -8
Height
5808 5811 5813 5814 5814 5817 5818 5819 5821 5825 5829 5830 5829 5831 5833 5834 5834 5835 5839 5842 5844 5847 5850 5852 5855 5858 5860 5862 5863 5865 5867 5869 5870 5871 5873 5874 5876 5877 5878 5879 5881 5881 5882 5883 5885 5887 5889 5890 5892 5894 5896 5897 5898 5899 5901 5902 5903 5904 5906 5906 5907 5908 5909
5805 5807 5808 5808 5808 5810 5812 5816 5821 5823 5824 5824 5824 5826 5829 5830 5831 5833 5837 5839 5841 5844 5847 5850 5853 5855 5858 5860 5862 5864 5865 5867 5868 5870 5872 5873 5875 5876 5877 5879 5880 5880 5881 5882 5883 5885 5886 5888 5890 5892 5893 5895 5895 5897 5898 5899 5900 5902 5903 5904 5905 5906 5906
5800 5800 5800 5800 5800 5803 5808 5814 5816 5815 5816 5819 5820 5822 5825 5827 5829 5832 5835 5837 5839 5842 5845 5848 5850 5852 5855 5858 5860 5862 5864 5865 5867 5869 5870 5872 5873 5874 5876 5877 5878 5879 5881 5882 5883 5884 5885 5886 5887 5889 5890 5892 5893 5894 5896 5897 5898 5899 5900 5901 5902 5904 5904
5793 5793 5793 5793 5795 5800 5805 5809 5808 5808 5812 5816 5817 5819 5823 5826 5828 5831 5833 5835 5837 5839 5842 5845 5847 5849 5851 5854 5856 5859 5861 5863 5865 5867 5868 5870 5872 5873 5875 5876 5877 5879 5880 5881 5882 5883 5883 5884 5885 5886 5887 5889 5890 5892 5893 5894 5895 5897 5898 5899 5901 5902 5903
5787 5786 5787 5789 5794 5798 5802 5804 5805 5806 5810 5812 5813 5815 5819 5822 5825 5829 5831 5833 5835 5837 5839 5841 5843 5845 5847 5849 5852 5854 5857 5859 5862 5863 5865 5867 5869 5871 5873 5874 5876 5877 5878 5880 5881 5881 5881 5882 5882 5883 5884 5885 5887 5889 5890 5892 5893 5894 5896 5897 5899 5900 5900
5781 5782 5785 5789 5793 5796 5799 5801 5803 5805 5808 5809 5810 5812 5816 5820 5823 5826 5829 5832 5834 5835 5838 5839 5841 5842 5844 5846 5848 5850 5853 5855 5858 5860 5863 5864 5867 5868 5870 5872 5873 5875 5877 5878 5879 5879 5879 5879 5880 5881 5882 5883 5884 5886 5888 5889 5891 5892 5894 5895 5897 5897 5898
5776 5778 5782 5786 5789 5791 5794 5795 5798 5800 5801 5802 5804 5810 5816 5819 5820 5823 5827 5829 5831 5834 5836 5838 5839 5840 5841 5843 5845 5847 5850 5852 5854 5857 5859 5861 5864 5866 5867 5868 5870 5872 5874 5875 5876 5876 5876 5876 5877 5878 5879 5880 5882 5884 5885 5886 5888 5890 5892 5893 5894 5895 5896
5772 5774 5777 5781 5784 5786 5787 5789 5792 5793 5793 5797 5802 5809 5813 5813 5813 5818 5822 5825 5829 5832 5834 5836 5837 5838 5839 5841 5843 5844 5846 5849 5851 5853 5855 5858 5860 5862 5864 5865 5866 5868 5870 5871 5873 5873 5873 5873 5874 5875 5876 5878 5879 5881 5882 5884 5886 5888 5889 5891 5891 5892 5894
5765 5767 5770 5772 5776 5778 5779 5783 5787 5787 5791 5796 5800 5803 5805 5804 5808 5814 5817 5821 5827 5830 5831 5833 5835 5836 5838 5839 5840 5842 5844 5845 5847 5849 5851 5854 5856 5858 5860 5861 5863 5865 5866 5868 5870 5870 5869 5870 5871 5872 5874 5875 5877 5878 5880 5882 5883 5885 5886 5888 5889 5890 5892
5757 5759 5762 5765 5769 5771 5773 5778 5782 5784 5788 5793 5795 5797 5798 5800 5807 5811 5812 5818 5826 5828 5829 5830 5832 5834 5835 5837 5838 5840 5841 5843 5844 5846 5848 5850 5851 5853 5856 5858 5860 5862 5864 5865 5867 5867 5867 5868 5870 5871 5871 5873 5874 5876 5878 5879 5881 5882 5884 5885 5887 5888 5889
5752 5755 5759 5763 5767 5768 5769 5774 5778 5781 5785 5788 5791 5791 5791 5796 5803 5805 5808 5817 5823 5826 5827 5828 5829 5831 5833 5834 5836 5838 5839 5840 5842 5843 5845 5846 5848 5850 5852 5854 5856 5858 5860 5862 5864 5864 5865 5866 5868 5869 5869 5871 5872 5874 5876 5877 5878 5879 5881 5882 5884 5886 5887
5746 5750 5754 5758 5761 5763 5765 5769 5773 5777 5781 5784 5786 5784 5786 5794 5798 5799 5808 5815 5818 5823 5825 5825 5827 5829 5830 5832 5833 5835 5836 5838 5839 5841 5842 5844 5845 5847 5849 5850 5852 5855 5857 5859 5861 5862 5862 5863 5865 5867 5867 5868 5869 5871 5873 5874 5875 5876 5878 5880 5881 5883 5884
5739 5744 5748 5751 5755 5758 5760 5763 5768 5772 5776 5779 5780 5780 5785 5791 5791 5797 5808 5812 5812 5818 5823 5823 5826 5827 5827 5829 5830 5832 5834 5835 5837 5838 5839 5840 5842 5843 5845 5846 5849 5851 5853 5855 5857 5859 5859 5860 5861 5864 5865 5866 5867 5868 5870 5871 5872 5874 5875 5877 5879 5880 5882
5732 5736 5741 5745 5748 5752 5754 5757 5762 5767 5771 5773 5775 5777 5782 5785 5787 5795 5804 5804 5806 5814 5819 5820 5823 5824 5824 5825 5826 5829 5831 5832 5833 5834 5835 5837 5838 5840 5842 5843 5846 5848 5850 5852 5854 5856 5857 5857 5858 5860 5862 5863 5864 5866 5867 5869 5870 5872 5873 5874 5876 5878 5880
5725 5729 5733 5738 5742 5745 5748 5752 5757 5762 5766 5768 5771 5774 5778 5780 5782 5790 5797 5797 5801 5810 5815 5817 5819 5820 5821 5822 5823 5825 5827 5828 5830 5831 5833 5834 5836 5837 5839 5840 5842 5845 5847 5849 5851 5853 5854 5855 5855 5857 5859 5861 5862 5863 5864 5866 5868 5869 5870 5872 5873 5875 5877
5717 5721 5726 5731 5735 5738 5742 5747 5752 5757 5761 5764 5766 5770 5774 5776 5778 5786 5791 5790 5796 5806 5812 5814 5815 5816 5817 5819 5820 5823 5824 5825 5826 5828 5830 5832 5834 5835 5836 5837 5839 5841 5843 5846 5848 5850 5852 5853 5853 5855 5857 5858 5859 5861 5862 5864 5865 5866 5867 5869 5870 5872 5874
5709 5714 5718 5724 5729 5732 5735 5741 5748 5752 5756 5760 5762 5765 5769 5771 5775 5780 5782 5784 5793 5804 5808 5808 5810 5812 5813 5815 5817 5819 5821 5822 5823 5825 5828 5830 5831 5832 5833 5834 5836 5837 5840 5842 5845 5847 5849 5850 5852 5853 5854 5855 5857 5859 5860 5861 5862 5863 5864 5866 5867 5869 5871
5701 5707 5711 5715 5720 5724 5728 5736 5743 5747 5750 5754 5757 5760 5763 5767 5770 5773 5775 5781 5791 5800 5801 5802 5805 5808 5810 5811 5812 5813 5815 5817 5819 5821 5824 5826 5828 5829 5830 5832 5833 5834 5836 5838 5841 5843 5845 5847 5849 5850 5851 5853 5854 5855 5856 5856 5858 5859 5861 5862 5864 5866 5867
5693 5700 5704 5706 5710 5717 5724 5731 5737 5741 5744 5748 5751 5754 5758 5761 5764 5767 5771 5778 5787 5793 5795 5797 5801 5804 5806 5806 5806 5808 5810 5813 5815 5818 5819 5822 5824 5826 5827 5829 5831 5832 5834 5835 5837 5840 5842 5843 5845 5847 5849 5850 5851 5851 5852 5853 5855 5856 5857 5858 5860 5862 5863
5684 5690 5695 5698 5704 5712 5720 5725 5729 5734 5738 5741 5744 5748 5752 5756 5759 5763 5768 5774 5781 5787 5790 5792 5796 5799 5800 5801 5802 5804 5806 5808 5811 5814 5815 5818 5820 5822 5825 5827 5828 5830 5831 5833 5834 5836 5838 5840 5842 5844 5846 5847 5848 5849 5850 5851 5852 5853 5854 5855 5857 5858 5860
5675 5682 5688 5694 5699 5705 5712 5717 5721 5728 5732 5735 5739 5742 5746 5751 5755 5759 5764 5769 5775 5781 5784 5786 5791 5794 5795 5796 5799 5802 5804 5805 5808 5810 5812 5814 5816 5819 5821 5823 5825 5827 5828 5830 5831 5833 5834 5836 5839 5841 5842 5843 5845 5846 5847 5848 5849 5850 5851 5852 5854 5856 5857
5667 5673 5680 5687 5691 5697 5705 5710 5715 5722 5726 5729 5734 5737 5741 5748 5751 5754 5759 5764 5769 5774 5778 5781 5785 5788 5789 5793 5797 5799 5801 5803 5804 5806 5808 5810 5812 5815 5817 5819 5822 5823 5825 5826 5828 5830 5831 5833 5835 5837 5838 5840 5841 5843 5844 5845 5846 5847 5848 5850 5852 5854 5855
5659 5665 5672 5680 5684 5690 5697 5703 5708 5715 5718 5722 5728 5731 5736 5744 5747 5749 5754 5759 5763 5768 5772 5776 5780 5782 5784 5789 5794 5796 5797 5799 5801 5803 5804 5806 5808 5810 5813 5815 5817 5819 5821 5823 5824 5826 5828 5830 5831 5833 5834 5836 5838 5839 5841 5843 5843 5844 5846 5847 5849 5851 5851
5653 5658 5664 5672 5677 5683 5690 5697 5702 5707 5711 5716 5722 5726 5731 5738 5742 5744 5749 5754 5758 5763 5766 5769 5774 5776 5778 5783 5789 5791 5792 5795 5797 5799 5800 5802 5804 5807 5808 5811 5813 5815 5817 5819 5821 5823 5825 5826 5828 5829 5831 5832 5834 5836 5838 5839 5841 5842 5844 5844 5846 5847 5847
5646 5650 5656 5663 5670 5676 5685 5692 5695 5700 5704 5709 5714 5719 5725 5732 5737 5741 5745 5750 5753 5758 5761 5764 5768 5771 5774 5777 5782 5786 5788 5790 5792 5794 5796 5798 5800 5803 5804 5806 5809 5811 5813 5815 5817 5818 5821 5823 5824 5825 5827 5829 5831 5832 5834 5836 5838 5840 5840 5840 5841 5841 5841
5638 5643 5648 5654 5661 5669 5680 5687 5689 5693 5697 5701 5707 5714 5719 5726 5732 5736 5740 5745 5749 5753 5756 5759 5762 5766 5769 5772 5776 5780 5783 5784 5786 5789 5791 5794 5796 5798 5800 5803 5805 5807 5809 5810 5812 5814 5816 5818 5820 5822 5823 5825 5827 5828 5829 5831 5833 5834 5835 5836 5837 5837 5838
5632 5635 5638 5644 5653 5664 5675 5681 5683 5686 5690 5695 5702 5708 5712 5718 5726 5731 5735 5741 5745 5749 5752 5754 5757 5760 5764 5767 5770 5774 5776 5779 5781 5783 5785 5788 5791 5794 5796 5798 5801 5803 5805 5806 5808 5810 5812 5814 5816 5818 5819 5821 5822 5823 5825 5826 5828 5829 5831 5832 5833 5834 5834
5623 5624 5629 5638 5649 5658 5667 5674 5678 5681 5685 5690 5696 5702 5705 5710 5718 5725 5730 5735 5740 5745 5748 5750 5752 5755 5758 5761 5764 5768 5770 5773 5775 5777 5780 5783 5785 5788 5791 5794 5797 5799 5801 5802 5804 5805 5807 5809 5811 5813 5815 5816 5817 5819 5820 5821 5823 5825 5826 5828 5828 5830 5831
5613 5618 5625 5636 5645 5652 5660 5669 5673 5676 5680 5684 5688 5694 5699 5704 5710 5717 5723 5729 5735 5740 5743 5745 5747 5750 5753 5755 5758 5761 5765 5767 5770 5773 5775 5777 5780 5783 5786 5789 5792 5794 5797 5798 5800 5801 5802 5804 5806 5808 5810 5811 5813 5814 5815 5817 5818 5820 5821 5823 5824 5825 5826
5608 5615 5625 5633 5639 5646 5653 5659 5663 5668 5674 5678 5682 5687 5693 5697 5703 5710 5716 5723 5729 5734 5738 5741 5742 5744 5747 5750 5752 5755 5759 5762 5765 5768 5770 5772 5775 5778 5780 5784 5787 5789 5792 5794 5795 5797 5798 5799 5801 5803 5805 5807 5808 5809 5811 5812 5813 5815 5816 5817 5819 5819 5820
5604 5612 5622 5627 5632 5639 5644 5649 5656 5663 5669 5673 5677 5681 5686 5692 5697 5703 5709 5716 5722 5728 5732 5735 5737 5739 5741 5744 5746 5749 5753 5756 5759 5763 5765 5768 5770 5773 5775 5778 5781 5784 5786 5789 5790 5792 5793 5794 5796 5797 5800 5802 5803 5804 5806 5807 5808 5809 5810 5812 5813 5813 5814
5598 5607 5616 5621 5626 5632 5638 5644 5651 5657 5663 5669 5673 5676 5682 5687 5692 5697 5703 5708 5714 5721 5726 5729 5732 5734 5736 5738 5741 5744 5747 5750 5754 5757 5761 5763 5765 5768 5770 5772 5775 5778 5781 5783 5785 5787 5789 5790 5791 5793 5794 5796 5798 5799 5800 5802 5803 5804 5805 5806 5807 5808 5808
5593 5604 5613 5616 5620 5625 5632 5638 5644 5651 5657 5663 5668 5671 5677 5683 5687 5692 5697 5702 5706 5713 5719 5724 5727 5729 5731 5734 5736 5739 5742 5745 5749 5752 5755 5758 5760 5762 5764 5767 5769 5772 5775 5777 5780 5782 5784 5785 5787 5788 5789 5791 5792 5793 5795 5796 5797 5799 5800 5800 5801 5802 5803
5590 5601 5607 5608 5612 5618 5625 5631 5639 5646 5652 5658 5663 5667 5672 5680 5687 5689 5691 5696 5700 5705 5711 5717 5721 5724 5726 5729 5732 5735 5737 5740 5743 5746 5749 5752 5754 5756 5758 5760 5763 5766 5769 5772 5774 5777 5778 5780 5781 5783 5784 5785 5786 5788 5789 5790 5791 5793 5794 5795 5795 5796 5797
5589 5598 5600 5601 5605 5613 5620 5626 5633 5640 5646 5652 5659 5663 5667 5677 5686 5686 5686 5690 5695 5699 5704 5709 5713 5718 5721 5724 5727 5730 5732 5735 5737 5740 5743 5745 5748 5750 5752 5754 5756 5759 5762 5766 5768 5771 5772 5774 5775 5777 5778 5779 5780 5782 5783 5784 5785 5786 5787 5788 5789 5789 5790
5585 5590 5592 5595 5600 5608 5615 5621 5627 5634 5639 5646 5654 5659 5663 5672 5681 5683 5683 5685 5689 5693 5698 5701 5705 5710 5714 5718 5722 5724 5726 5729 5731 5733 5736 5739 5742 5744 5746 5748 5751 5753 5756 5759 5762 5764 5766 5767 5769 5771 5772 5773 5774 5775 5776 5777 5778 5779 5780 5781 5782 5783 5784
5576 5580 5583 5588 5594 5602 5609 5615 5621 5629 5635 5641 5649 5655 5658 5666 5675 5680 5681 5681 5683 5687 5691 5695 5699 5703 5707 5710 5714 5717 5719 5721 5724 5727 5730 5733 5736 5738 5740 5743 5745 5748 5750 5753 5755 5757 5759 5761 5763 5765 5766 5767 5768 5769 5770 5770 5771 5772 5773 5774 5775 5776 5777
Wind_Speed
38 36 33 33 33 31 31 33 33 31 29 31 34 32 30 30 31 28 20 15 15 14 11 11 13 16 18 20 25 30 31 31 32 31 29 28 25 22 21 19 19 19 20 21 20 19 19 18 17 16 15 14 14 15 15 16 16 16 16 16 16 17 18
38 38 38 38 38 36 36 33 29 29 32 35 37 35 33 32 30 26 18 15 15 15 13 12 12 16 18 18 22 26 29 30 30 29 28 28 26 24 21 17 17 18 19 21 21 22 21 20 20 18 18 17 17 17 17 17 17 17 17 18 18 19 19
39 42 43 44 45 43 40 34 32 35 37 36 37 36 32 30 27 20 14 12 11 10 11 12 14 16 18 20 22 25 27 28 27 27 26 26 26 25 22 19 18 17 18 18 19 20 20 21 21 21 21 21 20 19 18 18 18 18 19 19 19 19 19
43 46 48 50 48 45 41 38 39 41 39 36 37 36 32 30 27 19 13 10 8 9 11 12 15 16 17 20 22 24 27 27 26 26 25 25 25 24 22 20 20 19 17 16 16 17 19 20 20 21 22 23 22 21 20 19 19 19 18 18 17 18 17
46 49 50 50 48 44 41 40 41 40 39 38 38 37 34 32 29 22 15 8 6 11 14 14 15 17 18 19 21 23 25 26 27 26 26 25 25 24 22 19 20 20 19 16 15 16 18 20 21 22 24 24 24 23 22 21 21 20 18 17 17 18 18
49 50 49 47 45 44 42 41 41 39 38 39 39 38 34 31 28 24 19 11 10 10 11 12 14 17 20 21 22 23 24 25 27 28 27 26 25 25 22 20 21 23 21 17 16 17 18 21 23 23 24 25 25 24 22 22 21 20 19 18 18 19 20
51 50 48 46 45 44 44 44 43 42 43 43 42 38 32 30 30 27 24 18 15 11 10 12 13 16 19 21 23 24 24 26 27 28 29 28 27 25 22 21 24 26 23 19 19 20 21 22 24 25 25 26 25 24 23 23 22 20 19 19 20 21 21
52 52 50 48 47 46 47 47 46 46 47 46 42 36 33 34 35 31 28 24 18 13 14 14 14 16 18 20 22 24 25 27 28 29 30 30 28 27 24 25 28 29 26 23 21 23 25 26 26 27 27 27 26 25 24 23 22 21 21 21 22 22 21
56 55 54 53 51 51 51 50 48 49 47 44 42 39 39 41 38 33 32 26 18 15 16 16 16 18 19 19 21 23 25 26 28 30 30 30 30 29 27 28 30 31 30 27 23 26 29 29 27 27 28 28 28 26 24 23 22 23 22 22 23 22 21
59 59 59 57 55 55 55 52 51 50 47 45 44 43 44 43 38 35 33 26 19 18 19 18 18 19 19 20 20 20 21 23 25 27 29 31 33 32 30 30 32 33 32 30 27 28 31 29 27 27 28 29 28 26 24 23 23 24 23 23 23 23 22
60 59 58 57 55 56 56 54 52 51 48 47 46 47 48 44 39 39 35 27 21 20 21 21 20 19 19 20 20 20 20 20 22 24 27 30 33 32 31 33 34 35 34 32 30 29 29 28 26 26 28 29 28 27 24 22 23 25 24 24 23 23 22
61 60 58 57 57 57 58 56 54 52 50 49 49 51 50 45 43 42 35 28 25 22 22 22 22 21 21 21 21 21 21 20 21 22 24 26 28 30 32 34 35 36 35 33 32 30 30 29 26 25 28 29 29 28 25 23 24 25 24 24 24 23 22
62 62 61 60 59 58 59 58 56 54 52 51 51 53 50 46 47 43 33 31 30 25 23 23 21 21 23 23 23 23 23 22 22 22 23 24 26 28 31 33 35 36 36 35 33 31 30 31 29 26 27 29 29 29 26 24 24 24 24 25 24 23 21
65 64 63 62 61 60 60 59 57 55 53 53 52 52 50 49 49 43 36 37 36 29 25 24 23 23 24 25 26 25 25 26 25 25 26 25 25 25 27 30 32 34 35 34 31 29 28 30 31 28 27 28 28 26 24 22 22 22 24 25 23 21 19
67 66 65 64 63 62 61 60 58 56 54 54 53 52 50 50 49 44 40 41 39 31 27 25 24 26 26 27 28 27 27 29 28 27 27 26 25 23 24 27 30 32 33 32 31 30 28 29 30 28 25 26 26 23 21 21 20 21 22 22 21 19 17
69 68 67 65 65 64 63 61 59 57 55 54 54 53 51 50 50 45 42 44 40 32 28 26 26 27 28 29 29 29 29 30 30 29 28 27 26 24 24 26 28 30 31 31 30 30 28 28 29 25 22 24 25 22 20 19 19 20 21 20 20 20 18
71 70 69 67 66 66 65 62 59 58 56 55 55 53 52 51 50 47 46 47 41 31 29 31 30 30 30 30 30 31 31 32 33 32 30 29 28 28 27 27 27 29 30 30 29 28 27 27 25 22 20 21 21 19 19 19 20 21 21 21 21 20 19
73 71 71 70 68 68 67 64 60 58 58 57 56 55 53 52 50 49 49 46 39 33 33 35 34 31 31 32 33 33 33 34 34 34 32 31 31 31 31 29 28 28 29 29 28 28 28 26 24 21 19 19 18 19 21 22 22 22 23 23 23 22 21
75 73 72 72 71 70 68 65 62 60 59 59 58 57 55 54 53 51 49 46 40 37 37 37 36 34 34 35 36 36 35 34 34 34 35 34 33 32 31 30 29 28 28 28 28 29 30 28 26 23 21 20 21 22 24 25 25 26 27 27 26 25 23
77 75 74 74 73 71 68 66 64 63 62 61 61 59 57 56 55 53 51 47 43 39 39 39 38 36 36 39 39 38 37 36 34 35 35 35 34 33 32 31 31 30 29 29 28 29 29 29 27 26 24 24 25 26 27 27 28 29 30 29 28 27 26
79 77 76 75 74 72 69 68 67 65 64 63 62 61 59 57 55 54 52 49 45 42 41 41 39 39 40 41 41 39 38 37 36 36 36 35 35 34 33 33 32 31 31 29 29 29 29 29 28 28 28 28 29 30 30 29 29 29 30 29 27 26 27
80 79 77 76 75 74 71 70 68 66 65 65 63 62 61 58 56 55 53 50 47 45 43 42 41 41 42 42 41 41 39 38 37 36 36 36 36 36 35 34 33 33 32 31 30 30 29 29 30 30 30 31 32 33 33 31 30 30 29 28 25 24 26
82 81 79 78 77 76 73 71 69 68 67 66 64 64 62 58 57 57 54 51 49 47 45 44 42 43 44 43 41 41 41 40 38 37 36 36 36 36 36 36 35 34 34 33 32 31 30 30 31 31 32 32 32 32 31 31 31 31 31 29 25 22 24
84 83 82 80 78 77 74 72 70 69 69 67 65 65 63 60 58 57 55 52 50 48 46 45 44 44 45 44 41 42 42 41 40 39 38 37 36 35 36 37 36 36 35 34 34 33 32 32 32 32 33 33 32 30 29 29 29 29 30 30 27 25 27
85 85 84 82 81 78 75 73 72 70 70 69 67 66 64 61 58 57 55 53 51 49 47 46 45 44 45 44 43 42 43 43 42 41 40 39 37 36 36 37 37 36 36 36 35 35 34 34 34 34 34 35 34 33 32 32 29 28 29 31 30 30 32
87 86 86 85 83 80 75 73 73 72 71 71 69 67 65 62 59 58 56 53 51 50 48 47 46 45 44 44 43 43 43 44 43 42 41 40 38 37 37 38 38 37 37 37 37 37 36 35 36 36 36 37 37 38 37 36 34 33 32 32 32 33 34
89 88 88 88 86 81 77 74 74 74 73 72 69 67 67 64 60 58 57 54 51 49 48 48 47 46 45 45 44 43 43 44 44 44 43 41 39 38 37 37 38 39 38 39 39 39 39 37 37 37 38 39 40 41 41 40 39 38 36 35 34 34 35
90 90 91 89 86 83 78 75 74 74 74 72 70 69 68 66 63 60 58 55 52 49 47 47 47 46 45 45 44 43 43 44 45 46 45 43 41 40 38 37 38 39 40 40 41 41 41 40 39 39 40 41 42 42 42 42 40 39 39 38 37 36 36
92 93 92 89 86 84 81 77 76 76 75 74 73 71 70 68 66 62 60 56 53 50 47 47 47 46 45 45 45 45 44 45 46 46 46 45 44 42 40 37 37 38 40 42 43 43 43 43 42 41 41 41 43 43 43 43 42 41 41 40 39 38 37
91 93 92 89 86 85 83 81 79 77 76 75 74 73 71 70 68 65 62 58 54 50 48 47 47 48 47 46 46 46 46 45 46 46 47 46 45 44 42 39 36 37 38 41 43 45 46 46 46 45 43 42 43 44 44 44 44 43 42 41 39 38 38
87 90 89 88 87 86 85 82 80 79 78 75 75 73 71 69 68 66 64 61 57 51 49 49 49 49 49 49 48 48 47 46 45 45 46 46 45 44 43 41 39 37 37 39 41 44 46 48 49 48 46 45 44 45 46 46 45 45 44 43 42 41 41
81 85 85 84 86 87 86 81 77 78 79 77 75 74 72 69 67 66 63 62 60 55 51 50 51 51 51 51 50 49 47 46 45 44 44 44 45 44 43 42 41 39 38 39 40 42 43 45 46 48 48 47 47 47 48 48 48 47 47 46 46 46 45
72 77 77 77 80 84 85 81 75 74 77 77 74 74 73 69 67 65 62 60 60 57 53 51 52 52 52 52 51 49 47 46 44 44 44 44 44 45 45 44 42 41 39 38 39 40 41 42 42 44 45 46 48 49 50 50 50 50 50 50 50 50 50
61 64 66 70 75 77 79 80 77 73 73 74 73 72 71 65 62 62 60 57 57 56 53 51 52 53 53 53 52 51 49 47 46 45 45 45 46 46 46 46 44 42 40 39 38 39 40 41 41 42 43 43 45 46 48 49 50 50 49 49 49 50 49
48 51 56 63 70 73 74 76 76 74 71 70 70 71 69 61 54 54 57 57 56 55 53 52 51 52 54 54 54 53 52 50 48 48 48 47 47 47 47 46 45 43 40 40 39 39 39 40 40 41 42 42 42 43 44 44 45 45 44 44 44 45 45
39 45 51 57 63 67 67 66 70 73 71 69 67 67 67 63 56 52 53 55 55 54 52 52 51 51 52 54 54 55 55 54 53 52 51 49 48 48 48 48 47 44 42 42 42 41 40 41 41 41 42 43 43 43 44 44 44 44 43 43 43 43 44
37 44 51 54 57 60 60 58 61 65 67 67 66 64 64 62 57 52 50 50 50 50 49 48 48 48 50 52 54 55 56 57 57 55 53 51 49 49 50 50 49 46 44 44 44 43 43 43 44 43 44 44 45 45 45 44 44 44 45 45 46 46 47
Wind_Direction
216 219 219 221 226 226 225 224 224 228 231 234 240 243 244 248 250 252 247 228 228 235 214 192 188 186 192 195 191 196 203 202 203 204 203 203 205 209 209 201 194 191 191 191 194 199 200 202 203 202 204 206 208 212 212 215 218 215 214 213 212 214 218
214 217 217 218 221 222 222 222 222 226 226 227 233 237 238 241 246 249 245 232 233 227 198 187 185 178 185 193 192 196 202 204 208 210 209 208 206 211 212 206 203 205 204 200 198 202 204 206 210 212 215 216 217 219 219 220 220 219 220 219 218 219 220
212 215 216 218 218 218 217 216 215 220 223 224 229 234 236 240 246 252 251 241 232 209 186 188 191 181 182 191 194 197 200 206 211 212 213 212 210 211 209 203 205 211 217 215 211 211 212 213 215 217 220 221 222 223 224 225 225 222 222 222 222 224 224
211 214 216 218 218 218 216 215 217 220 222 223 227 233 235 238 245 248 245 239 225 197 181 183 193 194 193 194 198 201 202 205 210 209 210 212 214 214 208 203 203 207 218 226 228 230 228 225 223 221 223 224 225 226 227 229 230 227 224 223 224 227 228
213 216 219 219 220 220 218 219 222 225 227 227 228 231 233 235 239 241 241 233 192 185 182 177 186 193 196 198 199 202 204 204 206 206 205 206 210 211 209 209 209 207 210 219 230 238 238 236 231 223 221 224 224 224 225 228 232 231 225 221 223 226 227
216 219 220 220 221 222 221 222 225 227 231 233 233 233 235 239 241 244 246 221 166 171 180 180 191 193 194 197 197 200 202 202 203 203 203 205 206 207 207 211 212 207 204 211 226 237 239 240 238 230 225 225 226 225 225 228 231 231 224 220 222 225 226
218 220 220 220 220 222 222 222 222 224 227 230 232 233 235 241 243 244 244 222 194 202 207 193 200 201 198 200 198 199 201 201 202 202 203 205 204 204 206 206 204 201 198 205 221 234 238 238 236 233 229 227 227 227 228 230 231 230 224 218 221 225 227
219 221 221 221 221 222 223 223 222 223 225 226 229 229 229 234 235 236 237 224 203 206 210 199 203 209 206 204 201 200 202 202 203 203 203 204 203 203 206 203 198 196 197 202 215 230 236 235 234 232 229 227 226 226 228 230 232 232 225 219 221 225 227
220 221 221 222 222 223 224 224 224 225 226 226 229 229 227 230 231 231 233 226 202 195 205 203 204 207 208 208 205 204 204 204 205 205 203 201 203 205 207 203 198 197 199 202 212 228 233 233 232 231 230 228 227 228 230 231 233 234 228 222 223 226 228
222 223 224 224 224 225 227 226 226 227 228 228 229 231 233 234 235 235 237 231 206 195 204 208 208 210 210 211 210 208 207 208 210 209 204 202 204 204 203 201 199 201 205 206 214 228 234 235 234 233 231 229 229 230 229 230 234 235 232 227 225 226 229
223 225 227 227 227 229 231 230 230 231 231 231 232 234 237 237 237 236 238 237 221 206 208 213 214 215 214 213 214 213 212 212 214 214 211 210 209 205 201 201 202 205 210 212 218 229 237 239 238 237 236 232 230 229 227 229 234 237 236 232 229 228 230
223 224 227 228 228 230 232 233 233 233 233 234 235 238 240 240 240 239 237 238 232 216 211 214 214 216 219 218 216 216 217 216 216 219 218 218 217 212 206 205 205 208 212 215 220 228 238 241 238 237 239 235 230 227 225 226 232 237 237 235 232 230 230
224 224 225 227 228 229 232 233 234 234 234 235 237 240 242 243 244 244 240 239 236 222 212 215 214 214 218 220 220 218 218 220 220 221 222 221 221 218 213 210 209 210 213 217 222 227 236 243 241 235 235 236 233 230 227 226 230 235 237 238 236 232 231
225 225 225 226 228 229 231 233 233 234 235 236 237 240 242 244 246 246 242 240 237 227 217 216 215 215 214 218 223 221 219 222 222 221 222 222 222 223 219 214 212 214 216 218 222 226 234 243 246 240 233 232 233 231 230 229 229 232 235 239 240 236 233
226 226 226 226 227 229 230 232 233 234 235 236 238 239 241 244 246 246 244 244 241 232 224 218 216 219 217 218 224 224 222 224 224 223 224 224 224 225 222 218 216 217 220 220 222 226 232 241 249 248 237 231 229 227 227 228 228 230 234 237 239 237 233
227 227 228 227 227 228 229 230 232 233 234 237 239 241 241 243 245 246 245 246 243 237 230 223 218 218 220 220 223 226 226 227 228 227 226 226 228 226 223 222 221 220 222 221 222 227 233 238 246 249 242 234 230 226 228 232 234 235 236 237 238 237 233
227 228 229 228 228 229 230 229 230 232 234 236 238 240 241 242 244 244 243 244 244 239 234 229 221 216 218 221 223 225 227 229 232 233 230 228 229 229 227 226 225 223 221 220 221 227 233 236 240 245 242 236 231 229 232 237 239 241 242 240 238 235 233
228 228 229 229 229 229 229 229 229 231 233 234 236 238 240 241 242 243 244 244 243 238 234 233 227 221 219 221 222 224 226 229 232 236 235 231 229 230 230 230 229 226 222 219 219 224 229 230 230 233 236 233 229 230 233 236 237 239 240 239 237 235 233
229 228 229 230 230 229 229 229 229 230 231 233 234 236 237 239 241 242 243 244 241 237 236 236 233 227 223 223 223 222 224 228 231 235 237 235 232 232 233 233 232 229 226 223 220 221 226 226 220 222 230 232 230 232 235 237 238 239 240 239 238 238 237
228 228 228 230 231 230 229 230 230 229 230 232 234 235 236 237 240 241 242 243 241 239 238 238 236 231 228 228 227 225 224 226 228 232 236 238 237 236 235 236 236 233 229 227 224 222 225 226 222 220 225 227 230 234 237 239 240 241 243 244 242 242 243
228 228 228 230 232 232 231 231 230 230 230 232 233 235 236 237 239 241 242 243 242 240 239 239 238 236 233 233 234 233 231 230 230 231 234 237 240 240 238 237 238 235 232 230 229 226 225 225 225 225 225 224 226 231 235 239 242 243 244 245 245 243 243
227 228 228 229 231 232 232 232 232 231 231 232 233 234 235 236 238 240 241 242 242 242 241 240 239 238 238 238 238 238 237 236 236 235 235 236 240 242 242 240 238 236 234 231 230 229 226 224 225 227 229 228 227 230 233 237 242 244 244 245 244 241 240
227 228 228 229 231 232 232 232 233 233 233 233 233 234 235 235 237 240 241 241 242 242 242 241 240 240 241 240 239 240 241 241 239 238 238 238 239 242 244 243 239 237 235 232 231 229 227 226 227 229 231 232 232 233 233 235 240 243 246 248 246 239 237
227 228 229 229 230 231 232 232 233 234 235 234 234 234 235 234 235 238 240 241 242 242 242 242 241 241 243 242 239 239 243 244 241 239 238 238 238 240 243 245 242 239 237 235 233 230 227 226 229 232 234 237 239 239 237 238 240 243 247 250 247 244 244
227 228 229 230 230 231 231 233 234 235 236 236 235 235 234 234 234 236 238 240 242 242 243 244 243 243 244 244 242 241 243 244 244 242 240 239 237 238 241 244 244 242 241 239 236 233 230 227 228 233 236 241 245 247 247 248 248 245 245 246 246 247 250
227 228 230 230 230 230 230 232 234 235 236 237 237 236 236 235 234 235 236 237 239 242 243 245 245 244 244 245 244 243 243 244 244 244 243 240 238 236 238 242 244 243 242 242 240 238 236 232 230 232 236 240 245 249 251 254 253 249 245 244 246 248 250
227 228 229 230 230 230 229 231 233 235 237 237 237 238 239 237 235 234 235 235 236 239 242 244 245 245 245 245 244 243 242 242 243 244 244 243 240 237 235 238 242 243 241 241 241 242 241 239 235 234 236 240 243 246 250 252 253 251 249 249 250 251 253
226 228 229 230 230 231 230 230 232 235 237 238 238 239 240 240 238 236 235 235 235 236 239 243 245 245 245 246 245 244 242 242 243 243 244 244 243 241 238 236 238 241 242 241 240 241 243 243 240 237 237 239 242 245 248 250 251 252 252 253 255 256 256
225 227 228 230 231 232 231 231 232 234 236 238 239 239 240 241 241 239 237 236 235 235 237 240 243 244 244 244 245 244 243 243 244 244 245 245 245 245 244 241 237 238 241 242 240 239 241 243 244 242 240 240 242 244 246 249 251 252 253 255 258 259 260
226 227 228 229 230 232 232 232 232 233 234 237 239 240 241 242 243 242 240 238 236 234 234 237 240 242 242 243 244 245 245 245 245 246 246 247 247 248 248 247 244 239 239 242 243 241 240 242 244 246 246 244 244 244 246 249 251 252 254 255 257 259 260
227 227 227 229 230 231 233 233 234 233 234 236 238 240 241 243 244 244 243 241 238 235 232 234 237 240 241 242 243 244 245 246 246 247 248 248 249 249 249 249 248 243 240 241 243 244 243 243 245 247 249 249 248 248 249 250 252 253 255 256 258 259 261
228 227 227 228 230 231 232 233 234 234 234 235 237 239 241 243 244 245 245 244 242 237 232 231 234 238 241 242 243 243 244 245 247 248 249 250 251 251 250 249 248 247 243 241 242 244 246 247 248 249 250 251 252 252 252 252 253 254 256 257 259 260 262
228 227 227 228 230 230 231 232 233 234 234 235 237 239 241 242 245 247 247 248 247 243 237 232 232 236 240 242 243 243 243 245 247 248 250 252 253 254 254 253 251 249 247 244 243 243 246 248 250 251 252 253 254 254 254 255 255 256 257 259 260 261 262
227 226 226 227 228 229 230 230 232 234 234 235 237 239 241 242 245 249 250 249 250 249 245 239 233 234 237 240 242 244 244 244 247 249 250 252 254 255 256 255 254 251 248 246 246 246 247 249 249 250 252 253 254 254 255 255 256 257 257 258 259 260 261
226 223 224 226 227 228 228 229 230 231 232 233 234 238 240 238 240 247 252 251 250 251 251 249 243 237 237 240 242 244 246 246 247 248 250 251 253 254 255 255 255 252 248 246 247 248 249 249 249 248 250 251 253 255 256 257 258 258 258 259 259 261 262
219 217 219 223 225 226 226 227 229 229 230 231 231 234 237 236 235 241 250 253 254 253 251 250 250 246 242 241 242 244 246 247 247 247 248 249 251 253 254 255 254 251 246 245 247 249 249 249 248 247 249 252 255 257 259 260 260 259 259 259 260 261 262
208 209 213 217 220 221 220 221 225 227 228 230 230 230 233 234 232 234 241 247 250 249 244 241 243 244 242 242 243 243 245 245 245 245 246 247 248 250 252 253 252 248 243 242 244 247 248 248 247 247 249 252 256 259 261 262 261 259 258 258 259 260 262